Date,TemperatureHighF,TemperatureAvgF,TemperatureLowF,DewpointHighF,DewpointAvgF,DewpointLowF,HumidityHigh,HumidityAvg,HumidityLow,PressureMaxIn,PressureMinIn,WindSpeedMaxMPH,WindSpeedAvgMPH,GustSpeedMaxMPH,PrecipitationSumIn
2012-1-1,45.0,37.9,31.0,-99.9,-99.9,-99.9,0,0,100,30.68,29.54,40,27,45,0.00
2012-1-2,32.0,25.4,23.0,-99.9,-99.9,-99.9,0,0,100,30.96,30.02,35,28,42,0.00
2012-1-3,26.0,22.4,18.0,-99.9,-99.9,-99.9,0,0,100,31.08,30.07,27,15,35,0.00
2012-1-4,38.0,32.5,25.0,-99.9,-99.9,-99.9,0,0,100,30.75,29.93,18,13,29,0.00
2012-1-5,48.0,39.9,30.0,-99.9,-99.9,-99.9,0,0,100,30.69,29.74,20,13,29,0.00
2012-1-6,53.0,46.6,41.0,-99.9,-99.9,-99.9,0,0,100,30.37,29.69,20,13,29,0.00
2012-1-7,41.0,38.4,37.0,-99.9,-99.9,-99.9,0,0,100,30.72,29.79,16,9,20,0.00
2012-1-8,41.0,36.0,31.0,-99.9,-99.9,-99.9,0,0,100,31.00,30.24,9,4,13,0.00
2012-1-9,46.0,38.2,31.0,-99.9,-99.9,-99.9,0,0,100,30.77,29.96,25,16,31,0.00
2012-1-10,50.0,41.9,32.0,-99.9,-99.9,-99.9,0,0,100,30.71,29.82,17,9,27,0.00
2012-1-11,44.0,37.3,8.0,-99.9,-99.9,-99.9,0,0,100,30.35,29.50,16,-72,207,0.00
2012-1-12,38.0,31.4,22.0,-99.9,-99.9,-99.9,0,0,100,30.13,29.39,29,14,35,0.00
2012-1-13,24.0,21.7,20.0,-99.9,-99.9,-99.9,0,0,100,30.57,29.50,30,20,35,0.00
2012-1-14,21.0,18.4,16.0,-99.9,-99.9,-99.9,0,0,100,30.90,30.05,17,10,25,0.00
2012-1-15,29.0,22.2,14.0,-99.9,-99.9,-99.9,0,0,100,31.02,30.08,20,13,32,0.00
2012-1-16,47.0,38.8,29.0,-99.9,-99.9,-99.9,0,0,100,30.72,29.70,23,16,32,0.00
2012-1-17,47.0,33.5,23.0,-99.9,-99.9,-99.9,0,0,100,30.82,29.57,34,18,38,0.00
2012-1-18,25.0,21.2,14.0,-99.9,-99.9,-99.9,0,0,100,30.93,29.92,22,13,28,0.00
2012-1-19,29.0,19.9,13.0,-99.9,-99.9,-99.9,0,0,100,30.82,29.81,27,17,31,0.00
2012-1-20,19.0,15.0,10.0,-99.9,-99.9,-99.9,0,0,100,30.86,30.07,23,11,29,0.00
2012-1-21,27.0,21.6,18.0,-99.9,-99.9,-99.9,0,0,100,30.89,30.08,24,11,29,0.00
2012-1-22,45.0,29.0,16.0,-99.9,-99.9,-99.9,0,0,100,30.67,29.53,22,15,34,0.00
2012-1-23,47.0,38.9,31.0,-99.9,-99.9,-99.9,0,0,100,30.55,29.40,39,24,46,0.00
2012-1-24,35.0,31.6,29.0,-99.9,-99.9,-99.9,0,0,100,30.97,29.91,24,14,30,0.00
2012-1-25,33.0,31.0,27.0,-99.9,-99.9,-99.9,0,0,100,31.00,30.07,12,6,19,0.00
2012-1-26,35.0,33.3,32.0,-99.9,-99.9,-99.9,0,0,100,30.68,29.64,10,6,18,0.00
2012-1-27,40.0,35.9,30.0,-99.9,-99.9,-99.9,0,0,100,30.60,29.65,42,12,25,0.00
2012-1-28,34.0,31.7,29.0,-99.9,-99.9,-99.9,0,0,100,30.75,29.82,32,22,36,0.00
2012-1-29,32.0,29.6,24.0,-99.9,-99.9,-99.9,0,0,100,30.89,29.94,32,17,36,0.00
2012-1-30,51.0,37.8,23.0,-99.9,-99.9,-99.9,0,0,100,30.87,29.83,30,19,40,0.00
2012-1-31,56.0,51.1,46.0,-99.9,-99.9,-99.9,0,0,100,30.53,29.81,26,22,35,0.00
2012-2-1,52.0,37.2,34.0,-99.9,-99.9,-99.9,0,0,100,30.83,29.88,16,6,26,0.00
2012-2-2,43.0,37.1,34.0,-99.9,-99.9,-99.9,0,0,100,31.08,30.17,10,4,14,0.00
2012-2-3,36.0,35.6,35.0,-99.9,-99.9,-99.9,0,0,100,31.12,30.35,17,8,22,0.00
2012-2-4,37.0,35.4,33.0,-99.9,-99.9,-99.9,0,0,100,31.00,30.19,18,10,22,0.00
2012-2-5,39.0,35.5,32.0,-99.9,-99.9,-99.9,0,0,100,30.94,30.19,8,4,14,0.00
2012-2-6,33.0,31.4,30.0,-99.9,-99.9,-99.9,0,0,100,30.86,30.14,19,12,25,0.00
2012-2-7,36.0,33.0,30.0,-99.9,-99.9,-99.9,0,0,100,31.00,30.19,26,12,29,0.00
2012-2-8,33.0,31.7,29.0,-99.9,-99.9,-99.9,0,0,100,31.00,30.31,18,8,23,0.00
2012-2-9,34.0,29.1,23.0,-99.9,-99.9,-99.9,0,0,100,30.96,30.11,18,13,25,0.00
2012-2-10,36.0,31.2,24.0,-99.9,-99.9,-99.9,0,0,100,30.74,29.88,36,20,60,0.00
2012-2-11,24.0,19.9,17.0,-99.9,-99.9,-99.9,0,0,100,30.99,30.08,35,25,60,0.00
2012-2-12,33.0,25.9,20.0,-99.9,-99.9,-99.9,0,0,100,30.98,30.22,23,17,29,0.00
2012-2-13,35.0,28.1,20.0,-99.9,-99.9,-99.9,0,0,100,30.79,29.90,19,12,26,0.00
2012-2-14,35.0,31.8,28.0,-99.9,-99.9,-99.9,0,0,100,30.66,29.85,13,10,22,0.00
2012-2-15,40.0,36.8,33.0,-99.9,-99.9,-99.9,0,0,100,30.74,29.99,18,13,27,0.00
2012-2-16,40.0,37.6,35.0,-99.9,-99.9,-99.9,0,0,100,30.77,29.97,16,8,20,0.00
2012-2-17,47.0,39.5,31.0,-99.9,-99.9,-99.9,0,0,100,30.81,30.01,21,13,31,0.00
2012-2-18,38.0,33.4,30.0,-99.9,-99.9,-99.9,0,0,100,30.87,30.04,20,15,26,0.00
2012-2-19,33.0,29.5,26.0,-99.9,-99.9,-99.9,0,0,100,30.87,30.16,13,9,20,0.00
2012-2-20,42.0,34.8,27.0,-99.9,-99.9,-99.9,0,0,100,30.97,29.94,16,9,29,0.00
2012-2-21,43.0,38.9,33.0,-99.9,-99.9,-99.9,0,0,100,30.57,29.66,28,16,35,0.00
2012-2-22,39.0,36.5,34.0,-99.9,-99.9,-99.9,0,0,100,30.34,29.46,14,8,21,0.00
2012-2-23,39.0,35.4,33.0,-99.9,-99.9,-99.9,0,0,100,30.22,29.44,23,10,26,0.00
2012-2-24,35.0,32.9,29.0,-99.9,-99.9,-99.9,0,0,100,30.56,28.86,31,9,37,0.00
2012-2-25,31.0,25.9,13.0,-99.9,-99.9,-99.9,0,0,100,30.98,24.04,173,-58,35,0.00
2012-2-26,49.0,34.9,9.0,-99.9,-99.9,-99.9,0,0,100,30.97,24.66,27,-67,221,0.00
2012-2-27,42.0,32.7,10.0,-99.9,-99.9,-99.9,0,0,100,33.87,30.10,173,-51,29,0.00
2012-2-28,47.0,35.8,1.0,-99.9,-99.9,-99.9,0,0,100,31.13,28.83,22,-63,196,0.00
2012-2-29,61.0,46.4,22.0,-99.9,-99.9,-99.9,0,0,100,30.48,29.42,173,-18,154,0.00
2012-3-1,39.0,35.7,11.0,-99.9,-99.9,-99.9,0,0,100,30.50,29.64,27,-68,125,0.00
2012-3-2,45.0,36.8,11.0,-99.9,-99.9,-99.9,0,0,100,30.44,29.25,33,-6,124,0.00
2012-3-3,36.0,32.8,31.0,-99.9,-99.9,-99.9,0,0,100,30.45,29.58,35,26,42,0.00
2012-3-4,31.0,30.7,29.0,-99.9,-99.9,-99.9,0,0,100,30.59,29.82,26,12,67,0.00
2012-3-5,36.0,30.1,27.0,-99.9,-99.9,-99.9,0,0,100,31.03,29.95,25,14,30,0.00
2012-3-6,65.0,48.9,32.0,-99.9,-99.9,-99.9,0,0,100,30.92,29.93,37,24,46,0.00
2012-3-7,65.0,59.1,54.0,-99.9,-99.9,-99.9,0,0,100,30.68,29.81,35,28,50,0.00
2012-3-8,63.0,43.9,39.0,-99.9,-99.9,-99.9,0,0,100,30.86,29.79,35,18,50,0.00
2012-3-9,39.0,33.2,30.0,-99.9,-99.9,-99.9,0,0,100,31.20,30.21,29,17,36,0.00
2012-3-10,57.0,40.6,27.0,-99.9,-99.9,-99.9,0,0,100,31.18,30.23,29,17,41,0.00
2012-3-11,67.0,53.9,41.0,-99.9,-99.9,-99.9,0,0,100,30.94,30.08,20,13,28,0.00
2012-3-12,68.0,57.2,49.0,-99.9,-99.9,-99.9,0,0,100,30.69,29.75,31,16,39,0.00
2012-3-13,62.0,54.5,49.0,-99.9,-99.9,-99.9,0,0,100,30.73,29.92,15,8,19,0.00
2012-3-14,78.0,66.7,55.0,-99.9,-99.9,-99.9,0,0,100,30.70,29.94,28,15,32,0.00
2012-3-15,74.0,63.3,44.0,-99.9,-99.9,-99.9,0,0,100,30.62,29.96,16,9,25,0.00
2012-3-16,72.0,52.0,42.0,-99.9,-99.9,-99.9,0,0,100,30.71,30.03,13,4,18,0.00
2012-3-17,78.0,68.4,58.0,-99.9,-99.9,-99.9,0,0,100,30.73,30.01,17,12,26,0.00
2012-3-18,77.0,66.8,57.0,-99.9,-99.9,-99.9,0,0,100,30.74,29.98,17,9,26,0.00
2012-3-19,77.0,69.1,60.0,-99.9,-99.9,-99.9,0,0,100,30.66,29.95,18,11,26,0.00
2012-3-20,84.0,75.1,68.0,-99.9,-99.9,-99.9,0,0,100,30.70,29.96,28,13,33,0.00
2012-3-21,84.0,73.8,55.0,-99.9,-99.9,-99.9,0,0,100,30.14,30.03,15,11,28,0.00
2012-3-22,80.0,66.5,52.0,-99.9,-99.9,-99.9,0,0,100,30.71,30.02,18,-1,29,0.00
2012-3-23,65.0,58.8,52.0,-99.9,-99.9,-99.9,0,0,100,30.63,29.81,28,8,36,0.00
2012-3-24,56.0,48.5,47.0,-99.9,-99.9,-99.9,0,0,100,30.53,29.79,15,5,21,0.00
2012-3-25,50.0,47.9,46.0,-99.9,-99.9,-99.9,0,0,100,30.77,29.95,21,5,25,0.00
2012-3-26,46.0,41.7,38.0,-99.9,-99.9,-99.9,0,0,100,31.02,30.15,29,20,34,0.00
2012-3-27,67.0,52.4,38.0,-99.9,-99.9,-99.9,0,0,100,30.91,29.83,24,17,33,0.00
2012-3-28,64.0,54.6,46.0,-99.9,-99.9,-99.9,0,0,100,30.69,29.80,27,14,34,0.00
2012-3-29,47.0,42.5,40.0,-99.9,-99.9,-99.9,0,0,100,30.78,29.99,21,13,24,0.00
2012-3-30,50.0,44.6,41.0,-99.9,-99.9,-99.9,0,0,100,30.63,29.72,25,14,36,0.00
2012-3-31,50.0,42.2,38.0,-99.9,-99.9,-99.9,0,0,100,30.64,29.84,19,11,23,0.00
2012-4-1,54.0,47.5,44.0,-99.9,-99.9,-99.9,0,0,100,30.43,29.71,20,12,25,0.00
2012-4-2,65.0,54.3,46.0,-99.9,-99.9,-99.9,0,0,100,30.57,29.79,20,13,30,0.00
2012-4-3,64.0,51.5,46.0,-99.9,-99.9,-99.9,0,0,100,30.59,29.84,20,13,28,0.00
2012-4-4,49.0,46.4,45.0,-99.9,-99.9,-99.9,0,0,100,30.62,29.91,25,17,29,0.00
2012-4-5,48.0,44.1,41.0,-99.9,-99.9,-99.9,0,0,100,30.76,29.93,26,21,31,0.00
2012-4-6,47.0,43.3,39.0,-99.9,-99.9,-99.9,0,0,100,30.95,30.16,23,16,27,0.00
2012-4-7,63.0,51.1,40.0,-99.9,-99.9,-99.9,0,0,100,30.95,30.13,23,7,30,0.00
2012-4-8,60.0,52.9,48.0,-99.9,-99.9,-99.9,0,0,100,30.75,30.10,25,11,28,0.00
2012-4-9,56.0,51.5,46.0,-99.9,-99.9,-99.9,0,0,100,30.71,29.92,24,14,33,0.00
2012-4-10,45.0,39.9,37.0,-99.9,-99.9,-99.9,0,0,100,30.76,30.02,26,20,34,0.00
2012-4-11,45.0,41.5,39.0,-99.9,-99.9,-99.9,0,0,100,30.94,30.12,23,14,29,0.00
2012-4-12,53.0,45.7,36.0,-99.9,-99.9,-99.9,0,0,100,30.95,30.16,16,7,19,0.00
2012-4-13,65.0,56.9,47.0,-99.9,-99.9,-99.9,0,0,100,30.86,30.05,19,13,27,0.00
2012-4-14,63.0,58.2,54.0,-99.9,-99.9,-99.9,0,0,100,30.55,29.87,17,11,24,0.00
2012-4-15,74.0,67.5,60.0,-99.9,-99.9,-99.9,0,0,100,30.41,29.68,30,19,40,0.00
2012-4-16,66.0,56.5,50.0,-99.9,-99.9,-99.9,0,0,100,30.80,29.58,38,25,55,0.00
2012-4-17,50.0,46.7,44.0,-99.9,-99.9,-99.9,0,0,100,31.04,30.23,17,11,26,0.00
2012-4-18,69.0,57.9,44.0,-99.9,-99.9,-99.9,0,0,100,30.95,29.96,24,14,30,0.00
2012-4-19,62.0,53.5,45.0,-99.9,-99.9,-99.9,0,0,100,30.65,29.75,17,10,27,0.00
2012-4-20,61.0,47.7,42.0,-99.9,-99.9,-99.9,0,0,100,30.62,29.66,32,22,37,0.00
2012-4-21,44.0,43.3,43.0,-99.9,-99.9,-99.9,0,0,100,30.69,29.97,29,18,32,0.00
2012-4-22,46.0,43.9,41.0,-99.9,-99.9,-99.9,0,0,100,30.71,29.99,31,20,36,0.00
2012-4-23,48.0,45.6,43.0,-99.9,-99.9,-99.9,0,0,100,30.66,29.81,23,17,28,0.00
2012-4-24,57.0,52.4,48.0,-99.9,-99.9,-99.9,0,0,100,30.36,29.72,16,9,23,0.00
2012-4-25,62.0,55.1,51.0,-99.9,-99.9,-99.9,0,0,100,30.41,29.62,16,9,22,0.00
2012-4-26,56.0,47.2,43.0,-99.9,-99.9,-99.9,0,0,100,30.78,29.62,30,19,36,0.00
2012-4-27,47.0,43.7,38.0,-99.9,-99.9,-99.9,0,0,100,30.94,30.12,26,18,30,0.00
2012-4-28,49.0,46.8,43.0,-99.9,-99.9,-99.9,0,0,100,30.82,30.00,26,15,32,0.00
2012-4-29,64.0,52.6,42.0,-99.9,-99.9,-99.9,0,0,100,30.91,30.05,22,13,35,0.00
2012-4-30,62.0,53.2,48.0,-99.9,-99.9,-99.9,0,0,100,30.69,29.91,22,10,35,0.00
2012-5-1,64.0,57.7,50.0,-99.9,-99.9,-99.9,0,0,100,30.66,29.85,14,8,22,0.00
2012-5-2,76.0,69.0,61.0,-99.9,-99.9,-99.9,0,0,100,30.51,29.81,29,16,41,0.00
2012-5-3,82.0,76.3,66.0,-99.9,-99.9,-99.9,0,0,100,30.53,29.86,28,16,35,0.00
2012-5-4,73.0,57.5,47.0,-99.9,-99.9,-99.9,0,0,100,30.61,29.83,20,10,32,0.00
2012-5-5,56.0,52.2,47.0,-99.9,-99.9,-99.9,0,0,100,30.67,29.96,16,6,19,0.00
2012-5-6,78.0,65.6,52.0,-99.9,-99.9,-99.9,0,0,100,30.67,29.79,23,10,34,0.00
2012-5-7,66.0,55.3,52.0,-99.9,-99.9,-99.9,0,0,100,30.56,29.79,20,7,30,0.00
2012-5-8,66.0,57.7,52.0,-99.9,-99.9,-99.9,0,0,100,30.53,29.86,14,6,16,0.00
2012-5-9,60.0,52.2,47.0,-99.9,-99.9,-99.9,0,0,100,29.97,29.87,16,10,18,0.00
2012-5-10,56.0,50.0,45.0,-99.9,-99.9,-99.9,0,0,100,30.62,29.95,10,6,22,0.00
2012-5-11,75.0,62.5,47.0,-99.9,-99.9,-99.9,0,0,100,30.15,30.08,16,10,24,0.00
2012-5-12,65.0,56.8,51.0,-99.9,-99.9,-99.9,0,0,100,30.89,30.14,14,10,26,0.00
2012-5-13,58.0,55.1,53.0,-99.9,-99.9,-99.9,0,0,100,30.87,30.13,17,10,19,0.00
2012-5-14,71.0,62.1,55.0,-99.9,-99.9,-99.9,0,0,100,30.14,30.01,9,4,12,0.00
2012-5-15,80.0,69.3,59.0,-99.9,-99.9,-99.9,0,0,100,30.59,29.85,22,12,26,0.00
2012-5-16,69.0,55.1,51.0,-99.9,-99.9,-99.9,0,0,100,30.77,29.86,27,16,36,0.00
2012-5-17,68.0,59.0,52.0,-99.9,-99.9,-99.9,0,0,100,30.82,30.07,19,12,25,0.00
2012-5-18,83.0,68.9,57.0,-99.9,-99.9,-99.9,0,0,100,30.72,30.00,13,9,22,0.00
2012-5-19,87.0,75.1,67.0,-99.9,-99.9,-99.9,0,0,100,30.66,30.00,16,11,22,0.00
2012-5-20,90.0,77.6,66.0,-99.9,-99.9,-99.9,0,0,100,30.70,29.92,35,13,44,0.00
2012-5-21,66.0,57.7,54.0,-99.9,-99.9,-99.9,0,0,100,30.82,30.05,24,17,30,0.00
2012-5-22,60.0,56.8,55.0,-99.9,-99.9,-99.9,0,0,100,30.61,29.95,19,13,25,0.00
2012-5-23,75.0,63.1,55.0,-99.9,-99.9,-99.9,0,0,100,30.57,29.79,12,7,18,0.00
2012-5-24,88.0,77.6,66.0,-99.9,-99.9,-99.9,0,0,100,30.44,29.63,22,15,32,0.00
2012-5-25,79.0,67.2,63.0,-99.9,-99.9,-99.9,0,0,100,30.72,29.72,21,12,30,0.00
2012-5-26,86.0,67.6,62.0,-99.9,-99.9,-99.9,0,0,100,30.81,30.02,26,13,32,0.00
2012-5-27,95.0,82.3,72.0,-99.9,-99.9,-99.9,0,0,100,30.65,29.86,18,13,28,0.00
2012-5-28,89.0,82.7,75.0,-99.9,-99.9,-99.9,0,0,100,30.50,29.70,27,18,36,0.00
2012-5-29,83.0,70.9,65.0,-99.9,-99.9,-99.9,0,0,100,30.49,29.74,26,10,29,0.00
2012-5-30,65.0,60.4,56.0,-99.9,-99.9,-99.9,0,0,100,30.58,29.87,20,12,24,0.00
2012-5-31,57.0,54.0,52.0,-99.9,-99.9,-99.9,0,0,100,30.66,29.83,29,20,34,0.00
2012-6-1,56.0,54.0,52.0,-99.9,-99.9,-99.9,0,0,100,30.51,29.75,26,19,33,0.00
2012-6-2,70.0,61.3,49.0,-99.9,-99.9,-99.9,0,0,100,30.43,29.75,25,14,28,0.00
2012-6-3,74.0,66.7,59.0,-99.9,-99.9,-99.9,0,0,100,29.87,29.81,13,8,18,0.00
2012-6-4,67.0,61.6,60.0,-99.9,-99.9,-99.9,0,0,100,29.95,29.83,15,9,18,0.00
2012-6-5,61.0,59.6,59.0,-99.9,-99.9,-99.9,0,0,100,30.63,29.94,20,13,25,0.00
2012-6-6,63.0,61.2,58.0,-99.9,-99.9,-99.9,0,0,100,30.12,30.04,14,6,16,0.00
2012-6-7,69.0,64.3,58.0,-99.9,-99.9,-99.9,0,0,100,30.18,30.08,10,5,11,0.00
2012-6-8,80.0,71.5,62.0,-99.9,-99.9,-99.9,0,0,100,30.11,29.94,13,7,16,0.00
2012-6-9,86.0,77.2,67.0,-99.9,-99.9,-99.9,0,0,100,29.99,29.88,19,13,23,0.00
2012-6-10,89.0,80.4,70.0,-99.9,-99.9,-99.9,0,0,100,30.60,29.90,22,12,30,0.00
2012-6-11,84.0,77.8,71.0,-99.9,-99.9,-99.9,0,0,100,30.52,29.81,22,13,27,0.00
2012-6-12,76.0,66.6,63.0,-99.9,-99.9,-99.9,0,0,100,30.78,29.86,20,15,27,0.00
2012-6-13,65.0,62.3,57.0,-99.9,-99.9,-99.9,0,0,100,30.84,30.12,18,12,20,0.00
2012-6-14,86.0,73.2,61.0,-99.9,-99.9,-99.9,0,0,100,30.78,30.05,15,10,22,0.00
2012-6-15,90.0,80.0,68.0,-99.9,-99.9,-99.9,0,0,100,30.74,30.05,18,10,27,0.00
2012-6-16,87.0,78.1,68.0,-99.9,-99.9,-99.9,0,0,100,30.66,29.93,28,14,33,0.00
2012-6-17,81.0,71.3,66.0,-99.9,-99.9,-99.9,0,0,100,30.66,29.84,18,8,25,0.00
2012-6-18,88.0,79.7,70.0,-99.9,-99.9,-99.9,0,0,100,30.42,29.69,34,19,44,0.00
2012-6-19,89.0,82.0,76.0,-99.9,-99.9,-99.9,0,0,100,30.64,29.83,21,16,32,0.00
2012-6-20,88.0,81.9,75.0,-99.9,-99.9,-99.9,0,0,100,30.70,29.91,24,18,33,0.00
2012-6-21,79.0,73.9,67.0,-99.9,-99.9,-99.9,0,0,100,30.58,29.90,23,12,29,0.00
2012-6-22,76.0,70.7,67.0,-99.9,-99.9,-99.9,0,0,100,30.05,29.97,13,8,18,0.00
2012-6-23,74.0,70.6,64.0,-99.9,-99.9,-99.9,0,0,100,30.66,30.00,12,6,18,0.00
2012-6-24,81.0,73.9,69.0,-99.9,-99.9,-99.9,0,0,100,30.62,29.93,13,7,19,0.00
2012-6-25,69.0,64.9,62.0,-99.9,-99.9,-99.9,0,0,100,30.10,29.99,23,18,27,0.00
2012-6-26,71.0,66.3,60.0,-99.9,-99.9,-99.9,0,0,100,30.69,29.96,17,8,28,0.00
2012-6-27,87.0,76.6,65.0,-99.9,-99.9,-99.9,0,0,100,30.61,29.81,22,14,29,0.00
2012-6-28,88.0,80.6,75.0,-99.9,-99.9,-99.9,0,0,100,30.49,29.77,21,12,29,0.00
2012-6-29,81.0,74.4,69.0,-99.9,-99.9,-99.9,0,0,100,30.64,29.80,31,6,61,0.00
2012-6-30,84.0,76.6,69.0,-99.9,-99.9,-99.9,0,0,100,30.48,29.83,12,6,17,0.00
2012-7-1,81.0,75.5,66.0,-99.9,-99.9,-99.9,0,0,100,30.67,29.89,12,6,30,0.00
2012-7-2,91.0,79.9,73.0,-99.9,-99.9,-99.9,0,0,100,30.64,29.92,17,6,22,0.00
2012-7-3,92.0,84.1,75.0,-99.9,-99.9,-99.9,0,0,100,29.97,29.84,17,12,24,0.00
2012-7-4,90.0,85.2,79.0,-99.9,-99.9,-99.9,0,0,100,30.53,29.86,14,10,19,0.00
2012-7-5,95.0,85.6,79.0,-99.9,-99.9,-99.9,0,0,100,30.54,29.89,19,7,29,0.00
2012-7-6,91.0,85.1,81.0,-99.9,-99.9,-99.9,0,0,100,29.99,29.92,10,7,12,0.00
2012-7-7,87.0,79.9,74.0,-99.9,-99.9,-99.9,0,0,100,30.66,29.94,20,11,23,0.00
2012-7-8,76.0,74.6,73.0,-99.9,-99.9,-99.9,0,0,100,30.10,30.00,21,17,25,0.00
2012-7-9,79.0,74.7,70.0,-99.9,-99.9,-99.9,0,0,100,30.08,30.04,16,8,26,0.00
2012-7-10,75.0,73.3,72.0,-99.9,-99.9,-99.9,0,0,100,30.77,30.07,18,14,21,0.00
2012-7-11,77.0,74.4,71.0,-99.9,-99.9,-99.9,0,0,100,30.77,30.10,18,12,20,0.00
2012-7-12,86.0,77.4,73.0,-99.9,-99.9,-99.9,0,0,100,30.13,30.06,16,12,24,0.00
2012-7-13,89.0,80.1,74.0,-99.9,-99.9,-99.9,0,0,100,30.72,30.01,23,10,29,0.00
2012-7-14,80.0,76.4,74.0,-99.9,-99.9,-99.9,0,0,100,30.67,30.02,12,7,19,0.00
2012-7-15,85.0,77.9,71.0,-99.9,-99.9,-99.9,0,0,100,30.09,30.00,11,7,13,0.00
2012-7-16,93.0,83.8,75.0,-99.9,-99.9,-99.9,0,0,100,30.50,29.87,16,9,22,0.00
2012-7-17,95.0,85.7,80.0,-99.9,-99.9,-99.9,0,0,100,30.51,29.80,15,9,23,0.00
2012-7-18,84.0,79.7,72.0,-99.9,-99.9,-99.9,0,0,100,30.53,29.87,49,10,60,0.00
2012-7-19,80.0,75.0,72.0,-99.9,-99.9,-99.9,0,0,100,30.55,29.89,30,13,35,0.00
2012-7-20,74.0,72.8,70.0,-99.9,-99.9,-99.9,0,0,100,30.71,29.94,21,17,26,0.00
2012-7-21,84.0,76.1,68.0,-99.9,-99.9,-99.9,0,0,100,30.72,30.05,11,6,24,0.00
2012-7-22,87.0,80.6,73.0,-99.9,-99.9,-99.9,0,0,100,30.14,30.04,12,9,15,0.00
2012-7-23,88.0,83.4,79.0,-99.9,-99.9,-99.9,0,0,100,30.60,29.91,19,13,26,0.00
2012-7-24,86.0,77.3,73.0,-99.9,-99.9,-99.9,0,0,100,30.63,29.90,32,11,43,0.00
2012-7-25,96.0,82.0,72.0,-99.9,-99.9,-99.9,0,0,100,30.54,29.62,20,13,30,0.00
2012-7-26,86.0,78.6,72.0,-99.9,-99.9,-99.9,0,0,100,30.38,29.60,28,15,30,0.00
2012-7-27,78.0,74.1,69.0,-99.9,-99.9,-99.9,0,0,100,29.98,29.80,19,10,23,0.00
2012-7-28,76.0,73.3,71.0,-99.9,-99.9,-99.9,0,0,100,30.70,29.98,19,12,23,0.00
2012-7-29,81.0,75.1,66.0,-99.9,-99.9,-99.9,0,0,100,30.14,30.01,15,7,17,0.00
2012-7-30,88.0,81.4,74.0,-99.9,-99.9,-99.9,0,0,100,30.02,29.90,11,8,16,0.00
2012-7-31,79.0,74.6,68.0,-99.9,-99.9,-99.9,0,0,100,30.55,29.89,25,12,41,0.00
2012-8-1,82.0,77.2,72.0,-99.9,-99.9,-99.9,0,0,100,30.60,29.90,11,8,12,0.00
2012-8-2,83.0,77.4,70.0,-99.9,-99.9,-99.9,0,0,100,30.54,29.84,16,9,18,0.00
2012-8-3,83.0,78.6,72.0,-99.9,-99.9,-99.9,0,0,100,29.92,29.86,12,7,15,0.00
2012-8-4,91.0,79.6,72.0,-99.9,-99.9,-99.9,0,0,100,30.51,29.80,38,9,48,0.00
2012-8-5,77.0,74.9,71.0,-99.9,-99.9,-99.9,0,0,100,30.18,29.91,18,12,24,0.00
2012-8-6,82.0,73.7,67.0,-99.9,-99.9,-99.9,0,0,100,30.80,30.02,10,6,15,0.00
2012-8-7,90.0,78.2,66.0,-99.9,-99.9,-99.9,0,0,100,30.64,29.90,16,9,20,0.00
2012-8-8,81.0,76.0,73.0,-99.9,-99.9,-99.9,0,0,100,30.58,29.93,16,9,21,0.00
2012-8-9,75.0,70.4,66.0,-99.9,-99.9,-99.9,0,0,100,30.58,29.84,28,14,32,0.00
2012-8-10,70.0,68.4,65.0,-99.9,-99.9,-99.9,0,0,100,30.56,29.80,36,25,41,0.00
2012-8-11,71.0,68.0,65.0,-99.9,-99.9,-99.9,0,0,100,30.55,29.91,29,15,30,0.00
2012-8-12,74.0,69.2,63.0,-99.9,-99.9,-99.9,0,0,100,30.65,29.99,11,7,23,0.00
2012-8-13,71.0,65.7,63.0,-99.9,-99.9,-99.9,0,0,100,30.63,29.96,14,6,26,0.00
2012-8-14,76.0,70.8,64.0,-99.9,-99.9,-99.9,0,0,100,29.98,29.91,11,6,14,0.00
2012-8-15,83.0,73.9,67.0,-99.9,-99.9,-99.9,0,0,100,29.99,29.91,11,6,15,0.00
2012-8-16,74.0,71.0,67.0,-99.9,-99.9,-99.9,0,0,100,30.52,29.83,23,14,31,0.00
2012-8-17,72.0,67.5,64.0,-99.9,-99.9,-99.9,0,0,100,30.65,29.92,21,12,28,0.00
2012-8-18,73.0,66.2,58.0,-99.9,-99.9,-99.9,0,0,100,30.67,29.96,10,6,12,0.00
2012-8-19,75.0,68.3,62.0,-99.9,-99.9,-99.9,0,0,100,30.00,29.93,10,5,12,0.00
2012-8-20,72.0,67.5,63.0,-99.9,-99.9,-99.9,0,0,100,30.64,29.95,14,6,24,0.00
2012-8-21,72.0,67.3,60.0,-99.9,-99.9,-99.9,0,0,100,30.65,30.02,9,5,11,0.00
2012-8-22,80.0,70.9,62.0,-99.9,-99.9,-99.9,0,0,100,30.77,30.06,14,6,16,0.00
2012-8-23,87.0,77.5,68.0,-99.9,-99.9,-99.9,0,0,100,30.72,30.05,13,10,20,0.00
2012-8-24,89.0,80.3,70.0,-99.9,-99.9,-99.9,0,0,100,30.08,30.00,13,8,20,0.00
2012-8-25,90.0,81.1,70.0,-99.9,-99.9,-99.9,0,0,100,30.65,30.02,12,8,20,0.00
2012-8-26,82.0,75.6,71.0,-99.9,-99.9,-99.9,0,0,100,30.68,29.99,22,10,27,0.00
2012-8-27,78.0,73.5,69.0,-99.9,-99.9,-99.9,0,0,100,30.69,29.98,14,8,17,0.00
2012-8-28,76.0,72.4,67.0,-99.9,-99.9,-99.9,0,0,100,30.78,30.06,18,8,20,0.00
2012-8-29,77.0,71.8,67.0,-99.9,-99.9,-99.9,0,0,100,30.12,30.03,11,6,12,0.00
2012-8-30,87.0,76.6,67.0,-99.9,-99.9,-99.9,0,0,100,30.69,29.98,16,11,21,0.00
2012-8-31,89.0,79.5,71.0,-99.9,-99.9,-99.9,0,0,100,30.69,30.01,16,12,28,0.00
2012-9-1,78.0,75.3,74.0,-99.9,-99.9,-99.9,0,0,100,30.69,29.97,14,8,28,0.00
2012-9-2,82.0,75.9,73.0,-99.9,-99.9,-99.9,0,0,100,30.58,29.88,14,12,26,0.00
2012-9-3,76.0,71.8,9.0,-99.9,-99.9,-99.9,0,0,100,29.95,29.90,13,-16,48,0.00
2012-9-4,80.0,73.5,11.0,-99.9,-99.9,-99.9,0,0,100,29.93,29.86,24,-14,84,0.00
2012-9-5,81.0,73.0,68.0,-99.9,-99.9,-99.9,0,0,100,30.57,29.80,30,13,40,0.00
2012-9-6,76.0,73.7,71.0,-99.9,-99.9,-99.9,0,0,100,29.96,29.85,12,8,19,0.00
2012-9-7,74.0,70.2,65.0,-99.9,-99.9,-99.9,0,0,100,30.56,29.71,32,12,55,0.00
2012-9-8,70.0,65.5,63.0,-99.9,-99.9,-99.9,0,0,100,30.53,29.79,27,16,31,0.00
2012-9-9,68.0,64.9,60.0,-99.9,-99.9,-99.9,0,0,100,30.68,29.87,22,13,28,0.00
2012-9-10,74.0,66.3,8.0,-99.9,-99.9,-99.9,0,0,100,30.86,30.13,18,-15,115,0.00
2012-9-11,81.0,69.9,59.0,-99.9,-99.9,-99.9,0,0,100,30.79,30.09,23,13,29,0.00
2012-9-12,83.0,73.0,64.0,-99.9,-99.9,-99.9,0,0,100,30.79,30.11,16,12,23,0.00
2012-9-13,71.0,67.4,63.0,-99.9,-99.9,-99.9,0,0,100,30.91,30.17,25,15,29,0.00
2012-9-14,73.0,63.3,58.0,-99.9,-99.9,-99.9,0,0,100,30.98,30.29,25,7,29,0.00
2012-9-15,72.0,64.6,56.0,-99.9,-99.9,-99.9,0,0,100,30.94,30.17,9,6,12,0.00
2012-9-16,76.0,66.9,57.0,-99.9,-99.9,-99.9,0,0,100,30.15,30.00,11,7,18,0.00
2012-9-17,76.0,66.8,59.0,-99.9,-99.9,-99.9,0,0,100,30.39,29.75,22,11,29,0.00
2012-9-18,64.0,58.4,30.0,-99.9,-99.9,-99.9,0,0,100,30.59,29.75,27,-18,34,0.00
2012-9-19,71.0,60.5,48.0,-99.9,-99.9,-99.9,0,0,100,30.71,29.87,26,15,221,0.00
2012-9-20,69.0,63.3,29.0,-99.9,-99.9,-99.9,0,0,100,30.55,29.85,24,-5,221,0.00
2012-9-21,64.0,58.0,52.0,-99.9,-99.9,-99.9,0,0,100,30.57,29.81,24,12,27,0.00
2012-9-22,59.0,53.6,20.0,-99.9,-99.9,-99.9,0,0,100,30.77,29.80,33,2,40,0.00
2012-9-23,57.0,54.3,49.0,-99.9,-99.9,-99.9,0,0,100,30.90,30.14,21,11,28,0.00
2012-9-24,69.0,54.1,12.0,-99.9,-99.9,-99.9,0,0,100,30.87,29.94,20,-43,219,0.00
2012-9-25,73.0,63.1,54.0,-99.9,-99.9,-99.9,0,0,100,30.54,29.85,17,12,25,0.00
2012-9-26,65.0,63.1,60.0,-99.9,-99.9,-99.9,0,0,100,30.77,29.89,25,13,29,0.00
2012-9-27,61.0,60.3,58.0,-99.9,-99.9,-99.9,0,0,100,30.82,30.15,23,8,26,0.00
2012-9-28,64.0,59.6,52.0,-99.9,-99.9,-99.9,0,0,100,30.79,30.11,20,12,23,0.00
2012-9-29,68.0,60.4,52.0,-99.9,-99.9,-99.9,0,0,100,30.75,29.99,12,7,22,0.00
2012-9-30,64.0,60.4,56.0,-99.9,-99.9,-99.9,0,0,100,30.62,29.93,20,14,26,0.00
2012-10-1,63.0,59.8,56.0,-99.9,-99.9,-99.9,0,0,100,30.58,29.83,16,11,21,0.00
2012-10-2,64.0,61.8,58.0,-99.9,-99.9,-99.9,0,0,100,30.53,29.81,22,14,26,0.00
2012-10-3,64.0,60.9,59.0,-99.9,-99.9,-99.9,0,0,100,30.60,29.90,12,9,16,0.00
2012-10-4,78.0,65.0,58.0,-99.9,-99.9,-99.9,0,0,100,30.71,29.99,33,17,40,0.00
2012-10-5,58.0,49.9,46.0,-99.9,-99.9,-99.9,0,0,100,30.78,30.05,24,15,31,0.00
2012-10-6,49.0,46.7,43.0,-99.9,-99.9,-99.9,0,0,100,30.78,30.05,25,16,30,0.00
2012-10-7,49.0,47.0,42.0,-99.9,-99.9,-99.9,0,0,100,30.80,30.13,19,12,24,0.00
2012-10-8,58.0,46.5,36.0,-99.9,-99.9,-99.9,0,0,100,30.80,30.05,22,13,27,0.00
2012-10-9,64.0,54.0,44.0,-99.9,-99.9,-99.9,0,0,100,30.68,29.84,33,19,42,0.00
2012-10-10,51.0,47.1,43.0,-99.9,-99.9,-99.9,0,0,100,30.75,29.92,28,18,32,0.00
2012-10-11,64.0,51.3,39.0,-99.9,-99.9,-99.9,0,0,100,30.87,30.06,27,18,36,0.00
2012-10-12,52.0,48.9,44.0,-99.9,-99.9,-99.9,0,0,100,31.08,30.24,26,13,32,0.00
2012-10-13,68.0,55.5,47.0,-99.9,-99.9,-99.9,0,0,100,30.87,29.82,25,16,32,0.00
2012-10-14,70.0,63.3,51.0,-99.9,-99.9,-99.9,0,0,100,30.46,29.46,40,22,55,0.00
2012-10-15,52.0,50.3,48.0,-99.9,-99.9,-99.9,0,0,100,30.61,29.77,24,13,28,0.00
2012-10-16,66.0,55.3,44.0,-99.9,-99.9,-99.9,0,0,100,30.62,29.61,23,14,34,0.00
2012-10-17,68.0,61.8,58.0,-99.9,-99.9,-99.9,0,0,100,30.23,29.36,26,18,39,0.00
2012-10-18,58.0,51.0,46.0,-99.9,-99.9,-99.9,0,0,100,30.20,29.37,23,16,34,0.00
2012-10-19,51.0,48.3,45.0,-99.9,-99.9,-99.9,0,0,100,30.21,29.48,18,11,23,0.00
2012-10-20,56.0,49.7,43.0,-99.9,-99.9,-99.9,0,0,100,30.51,29.66,17,12,24,0.00
2012-10-21,67.0,54.6,43.0,-99.9,-99.9,-99.9,0,0,100,30.69,29.97,16,10,24,0.00
2012-10-22,66.0,62.4,59.0,-99.9,-99.9,-99.9,0,0,100,30.63,29.89,20,12,29,0.00
2012-10-23,66.0,63.2,60.0,-99.9,-99.9,-99.9,0,0,100,30.57,29.92,17,10,23,0.00
2012-10-24,77.0,68.8,62.0,-99.9,-99.9,-99.9,0,0,100,30.59,29.89,20,14,27,0.00
2012-10-25,76.0,67.2,49.0,-99.9,-99.9,-99.9,0,0,100,30.50,29.74,30,20,42,0.00
2012-10-26,49.0,45.8,43.0,-99.9,-99.9,-99.9,0,0,100,30.95,30.01,25,19,33,0.00
2012-10-27,48.0,46.4,45.0,-99.9,-99.9,-99.9,0,0,100,30.92,30.23,23,18,29,0.00
2012-10-28,49.0,46.1,42.0,-99.9,-99.9,-99.9,0,0,100,30.89,30.20,27,22,34,0.00
2012-10-29,49.0,47.8,47.0,-99.9,-99.9,-99.9,0,0,100,30.85,29.96,38,30,49,0.00
2012-10-30,48.0,45.3,43.0,-99.9,-99.9,-99.9,0,0,100,30.53,29.72,42,35,52,0.00
2012-10-31,48.0,42.8,40.0,-99.9,-99.9,-99.9,0,0,100,30.46,29.72,34,22,42,0.00
2012-11-1,49.0,45.6,41.0,-99.9,-99.9,-99.9,0,0,100,30.50,29.83,22,14,28,0.00
2012-11-2,47.0,44.1,42.0,-99.9,-99.9,-99.9,0,0,100,30.78,29.88,22,16,28,0.00
2012-11-3,44.0,41.2,38.0,-99.9,-99.9,-99.9,0,0,100,30.86,30.15,19,12,23,0.00
2012-11-4,45.0,41.7,38.0,-99.9,-99.9,-99.9,0,0,100,30.86,30.19,15,8,20,0.00
2012-11-5,42.0,39.7,37.0,-99.9,-99.9,-99.9,0,0,100,30.85,30.12,16,9,21,0.00
2012-11-6,44.0,38.8,33.0,-99.9,-99.9,-99.9,0,0,100,30.76,29.92,13,8,17,0.00
2012-11-7,46.0,41.8,38.0,-99.9,-99.9,-99.9,0,0,100,30.79,29.92,13,5,16,0.00
2012-11-8,45.0,42.1,38.0,-99.9,-99.9,-99.9,0,0,100,30.86,30.13,13,8,20,0.00
2012-11-9,58.0,49.6,40.0,-99.9,-99.9,-99.9,0,0,100,30.76,30.01,15,11,21,0.00
2012-11-10,68.0,59.7,54.0,-99.9,-99.9,-99.9,0,0,100,30.65,29.90,26,16,36,0.00
2012-11-11,69.0,61.6,52.0,-99.9,-99.9,-99.9,0,0,100,30.61,29.80,32,23,46,0.00
2012-11-12,52.0,37.0,31.0,-99.9,-99.9,-99.9,0,0,100,30.94,29.92,30,22,41,0.00
2012-11-13,38.0,33.5,30.0,-99.9,-99.9,-99.9,0,0,100,31.13,30.32,25,10,31,0.00
2012-11-14,43.0,36.3,32.0,-99.9,-99.9,-99.9,0,0,100,31.16,30.40,13,8,19,0.00
2012-11-15,47.0,38.7,32.0,-99.9,-99.9,-99.9,0,0,100,31.05,30.34,11,6,19,0.00
2012-11-16,50.0,41.9,33.0,-99.9,-99.9,-99.9,0,0,100,31.11,30.39,10,6,12,0.00
2012-11-17,52.0,45.5,37.0,-99.9,-99.9,-99.9,0,0,100,31.18,30.47,13,7,19,0.00
2012-11-18,57.0,49.0,41.0,-99.9,-99.9,-99.9,0,0,100,31.09,30.34,17,10,24,0.00
2012-11-19,57.0,50.6,45.0,-99.9,-99.9,-99.9,0,0,100,30.94,30.14,13,10,21,0.00
2012-11-20,52.0,49.2,44.0,-99.9,-99.9,-99.9,0,0,100,30.81,30.10,13,6,24,0.00
2012-11-21,57.0,47.4,36.0,-99.9,-99.9,-99.9,0,0,100,30.90,30.13,13,8,17,0.00
2012-11-22,61.0,53.8,47.0,-99.9,-99.9,-99.9,0,0,100,30.74,29.80,28,19,34,0.00
2012-11-23,55.0,36.4,32.0,-99.9,-99.9,-99.9,0,0,100,30.81,29.82,34,27,43,0.00
2012-11-24,32.0,30.0,29.0,-99.9,-99.9,-99.9,0,0,100,30.88,30.03,20,13,33,0.00
2012-11-25,43.0,35.9,29.0,-99.9,-99.9,-99.9,0,0,100,30.66,29.88,17,10,25,0.00
2012-11-26,40.0,36.3,34.0,-99.9,-99.9,-99.9,0,0,100,30.97,30.07,17,12,24,0.00
2012-11-27,35.0,32.9,30.0,-99.9,-99.9,-99.9,0,0,100,31.03,30.28,17,11,24,0.00
2012-11-28,43.0,36.1,32.0,-99.9,-99.9,-99.9,0,0,100,31.02,30.27,20,10,23,0.00
2012-11-29,50.0,42.1,33.0,-99.9,-99.9,-99.9,0,0,100,30.93,30.12,20,14,25,0.00
2012-11-30,48.0,44.2,41.0,-99.9,-99.9,-99.9,0,0,100,30.78,30.08,14,9,24,0.00
2012-12-1,59.0,51.3,41.0,-99.9,-99.9,-99.9,0,0,100,30.77,29.94,24,13,34,0.00
2012-12-2,60.0,55.1,47.0,-99.9,-99.9,-99.9,0,0,100,30.70,29.90,22,12,30,0.00
2012-12-3,68.0,60.9,51.0,-99.9,-99.9,-99.9,0,0,100,30.68,29.83,27,16,38,0.00
2012-12-4,63.0,51.1,46.0,-99.9,-99.9,-99.9,0,0,100,30.89,29.89,24,10,30,0.00
2012-12-5,46.0,37.7,34.0,-99.9,-99.9,-99.9,0,0,100,31.06,30.24,20,13,25,0.00
2012-12-6,45.0,37.3,32.0,-99.9,-99.9,-99.9,0,0,100,30.87,29.93,18,12,25,0.00
2012-12-7,45.0,44.5,44.0,-99.9,-99.9,-99.9,0,0,100,30.58,29.87,14,9,16,0.00
2012-12-8,45.0,41.2,36.0,-99.9,-99.9,-99.9,0,0,100,30.74,29.85,23,14,27,0.00
2012-12-9,44.0,39.4,35.0,-99.9,-99.9,-99.9,0,0,100,30.73,29.72,25,13,30,0.00
2012-12-10,40.0,34.6,18.0,-99.9,-99.9,-99.9,0,0,100,30.57,29.72,28,-34,30,0.00
2012-12-11,35.0,31.7,18.0,-99.9,-99.9,-99.9,0,0,100,30.72,29.84,21,-18,29,0.00
2012-12-12,44.0,34.1,14.0,-99.9,-99.9,-99.9,0,0,100,32.28,27.38,17,-36,213,0.00
2012-12-13,47.0,38.6,20.0,-99.9,-99.9,-99.9,0,0,100,30.94,30.13,23,-16,210,0.00
2012-12-14,48.0,39.3,10.0,-99.9,-99.9,-99.9,0,0,100,33.02,30.09,16,-47,222,0.00
2012-12-15,52.0,45.6,20.0,-99.9,-99.9,-99.9,0,0,100,30.69,29.63,20,-8,197,0.00
2012-12-16,52.0,43.9,12.0,-99.9,-99.9,-99.9,0,0,100,30.36,29.62,19,-22,28,0.00
2012-12-17,41.0,39.1,38.0,-99.9,-99.9,-99.9,0,0,100,30.37,29.68,12,7,23,0.00
2012-12-18,43.0,37.6,33.0,-99.9,-99.9,-99.9,0,0,100,30.43,29.65,24,11,28,0.00
2012-12-19,43.0,39.5,37.0,-99.9,-99.9,-99.9,0,0,100,30.69,29.75,24,12,30,0.00
2012-12-20,51.0,42.9,35.0,-99.9,-99.9,-99.9,0,0,100,30.43,29.07,40,21,52,0.00
2012-12-21,36.0,31.6,27.0,-99.9,-99.9,-99.9,0,0,100,30.77,29.32,46,34,58,0.00
2012-12-22,32.0,27.6,22.0,-99.9,-99.9,-99.9,0,0,100,30.85,29.99,19,11,29,0.00
2012-12-23,37.0,33.5,25.0,-99.9,-99.9,-99.9,0,0,100,30.65,29.92,16,10,22,0.00
2012-12-24,36.0,32.4,28.0,-99.9,-99.9,-99.9,0,0,100,30.65,29.85,18,11,25,0.00
2012-12-25,36.0,32.7,30.0,-99.9,-99.9,-99.9,0,0,100,30.93,30.07,28,16,31,0.00
2012-12-26,34.0,32.2,30.0,-99.9,-99.9,-99.9,0,0,100,30.87,29.92,37,29,43,0.00
2012-12-27,34.0,33.3,31.0,-99.9,-99.9,-99.9,0,0,100,30.79,30.05,17,8,25,0.00
2012-12-28,32.0,30.7,30.0,-99.9,-99.9,-99.9,0,0,100,30.74,29.89,12,7,16,0.00
2012-12-29,33.0,29.5,24.0,-99.9,-99.9,-99.9,0,0,100,30.85,29.86,25,16,29,0.00
2012-12-30,32.0,25.5,17.0,-99.9,-99.9,-99.9,0,0,100,30.96,30.13,22,14,28,0.00
2012-12-31,36.0,31.9,27.0,-99.9,-99.9,-99.9,0,0,100,30.75,30.02,22,16,28,0.00
2013-1-1,27.0,25.2,20.0,-99.9,-99.9,-99.9,0,0,100,30.81,30.09,23,14,27,0.00